CAPE
0 0 0 0 0 0 11 53 10 24 9 22 62 106 173 353 326 66 0 12 20 32 230 350 520 433 497 623 981 1087 1215 1461 1384 1504 1661 1484 1391 1226 1082 1257 1406 1863 1913 1730
0 0 0 0 0 0 0 19 40 17 44 5 66 94 210 325 373 296 118 20 17 15 35 228 511 447 609 766 1111 1451 1572 1876 1866 1904 1594 1372 904 609 924 1540 1713 1934 1708 1659
0 0 0 0 0 0 0 2 37 45 95 82 110 54 118 153 342 331 254 102 52 10 16 85 422 594 726 762 1145 1747 2036 2271 2277 2104 1807 1744 1591 1046 1235 541 1010 1598 1404 1495
0 0 0 0 0 0 0 0 9 44 39 48 23 129 87 75 73 232 382 339 119 75 33 43 344 654 719 835 1206 1752 2286 2508 2511 2540 1880 1539 1409 903 453 359 497 501 632 658
0 0 0 0 0 0 0 0 6 28 69 112 67 59 40 22 26 45 221 372 305 99 94 50 156 403 642 820 1106 1537 2370 2772 2670 2675 2068 1750 1442 677 685 540 854 533 968 757
0 0 0 0 0 0 0 0 16 25 40 46 119 60 42 3 44 85 97 231 453 268 139 234 147 244 451 636 900 1184 2225 2890 3106 2949 2812 2452 2219 1101 976 918 920 465 678 615
0 0 0 0 0 0 0 0 9 14 31 18 72 64 25 64 91 66 53 78 209 519 124 114 217 248 407 592 867 1046 1933 2943 3318 2962 2773 2632 2579 2278 1692 1743 991 528 448 562
0 0 0 0 0 0 0 0 0 2 17 20 30 32 56 79 21 70 53 48 72 399 377 105 120 132 201 431 968 1177 1681 2729 3178 3101 3094 3049 2968 2148 1803 1584 1234 392 252 361
0 0 0 0 0 0 0 0 0 6 32 41 30 26 16 22 29 67 25 1 23 218 439 178 138 118 108 367 874 1280 1528 2453 2949 3015 3356 3154 3071 2665 1571 1563 1801 1245 463 161
0 0 0 0 0 0 0 0 0 0 14 33 35 25 20 41 6 9 19 2 7 18 209 320 157 149 146 223 614 1149 1543 2508 2908 2912 3265 3042 3048 3072 2681 2377 2329 1689 882 355
0 0 0 0 0 0 0 0 0 0 1 17 38 35 22 24 12 0 0 0 13 19 118 376 320 246 292 247 370 946 1675 2227 2775 2822 2938 2792 2889 2715 2951 2509 2431 2247 1441 1051
0 0 0 0 0 0 0 0 0 1 0 2 16 31 23 0 10 2 12 25 24 8 37 106 357 388 425 572 489 779 1263 1737 2464 2592 3036 2961 2939 2599 2571 2698 2541 2683 1857 1404
0 0 0 0 0 0 0 0 0 0 0 0 6 0 0 0 10 1 4 0 0 0 9 32 165 441 667 953 963 976 1350 1328 1804 2512 2683 3025 3036 2770 2474 2780 2658 2718 2252 1377
0 0 0 0 0 0 0 0 0 0 0 0 0 9 37 11 4 0 0 0 1 0 52 107 66 266 870 1116 1457 1550 1564 1507 1730 2104 2289 2684 3139 3039 2753 2717 2810 2893 2204 1421
0 0 0 0 0 2 0 0 0 0 0 0 0 10 8 19 18 7 0 0 0 0 2 228 349 264 1311 1507 1873 1876 2072 2049 1911 2343 2535 2791 3180 3124 3016 2552 2715 2808 2013 1471
0 0 0 0 0 0 0 0 0 0 0 0 0 0 0 9 24 14 0 0 0 0 0 132 635 712 1347 1726 2236 2498 2337 2307 2273 2700 2743 2990 3416 3173 3057 2837 2522 2591 2034 1123
0 0 0 0 2 19 10 0 0 0 0 0 0 0 0 0 0 6 4 0 0 0 0 0 637 1059 1569 1843 2334 2476 2696 2611 2608 2789 2918 3154 3469 3422 3277 2967 2677 2462 1760 1168
0 1 5 11 32 52 0 4 0 3 4 4 3 0 0 0 0 0 0 0 0 0 0 0 448 1028 1549 1805 2099 2456 2511 2822 2994 2935 3119 3270 3531 3553 3305 2799 2571 2203 1546 1274
3 8 11 24 28 51 22 152 157 160 9 3 4 2 0 0 0 0 0 0 0 0 12 22 336 944 1474 1923 2366 2721 2718 2770 2976 3072 3232 3318 3383 3581 3143 2567 2297 1868 1541 1284
3 56 90 67 62 84 128 437 343 255 0 5 61 34 3 0 0 0 0 0 0 4 101 165 283 980 1418 2069 2222 2732 2806 2951 3067 3138 3121 3317 3392 3232 2855 2531 2204 1821 1602 1224
0 2 21 93 104 78 569 154 278 84 119 707 546 332 242 102 0 0 52 0 1 108 270 755 1257 1235 2147 2178 2185 2716 2602 2653 2650 2533 2707 2998 2969 2945 2700 2094 1965 1569 1272 1034
0 0 0 41 113 164 485 296 251 769 890 786 822 556 276 304 75 6 460 478 482 469 557 911 1192 1465 1919 2166 2503 2523 2413 2522 2472 2573 2763 2977 2924 2630 2467 2140 1909 1348 1179 804
0 0 12 59 54 653 493 594 484 579 729 809 857 700 574 628 573 592 718 863 1030 1144 1170 1358 1746 1833 1783 2104 2338 2386 2923 2851 2800 2854 2969 2916 2622 2356 2074 1888 1220 931 856 811
66 17 91 549 565 268 242 88 254 294 407 919 925 947 857 1019 1085 1148 1070 1009 1099 1305 1449 1626 1752 1929 2212 2542 3038 3288 3027 3044 2879 2986 2360 1932 1709 1650 1346 1098 989 791 729 920
15 40 235 627 324 84 64 58 55 53 105 550 845 1193 1199 1165 1072 974 870 821 824 951 949 1113 1385 1627 1898 2166 2205 2328 2521 2571 2331 1960 1545 1331 1160 1200 870 228 591 1095 206 578
1 0 28 76 310 239 3 0 0 2 4 41 67 171 159 317 561 601 843 1104 774 588 651 768 1147 1542 1843 2035 2074 2150 2221 2107 1861 1818 1669 1448 1052 958 779 497 38 0 0 0
CIN
0 0 0 0 0 0 -8 -6 -11 -15 -16 -6 -3 -4 -3 -4 -2 -20 -1 -95 -82 -62 -41 -58 -67 -65 -71 -61 -52 -47 -24 -4 -2 -1 -1 -3 -2 -2 -1 -2 -1 -4 0 -1
0 0 0 0 0 0 0 -11 -10 -13 -10 -14 -7 -4 -4 -8 -6 -6 -7 -96 -104 -111 -81 -75 -51 -61 -63 -65 -38 -32 -23 -1 -2 -3 -4 -3 -2 -11 -6 -7 -5 -1 0 -1
0 0 0 0 0 0 0 -5 -10 -9 -4 -9 -6 -10 -13 -5 -6 -18 -14 -21 -68 -139 -140 -115 -79 -61 -52 -62 -53 -27 -12 -2 -1 -2 -2 -5 -5 -10 -2 -23 -8 -3 -1 -1
0 0 0 0 0 0 0 0 -9 -9 -18 -10 -6 -9 -6 -9 -6 -13 -17 -24 -36 -79 -123 -121 -98 -75 -70 -59 -36 -15 -2 -1 -1 -1 -5 -2 -3 -8 -26 -36 -12 -22 -36 -41
0 0 0 0 0 0 0 0 -5 -5 -6 -6 -7 -7 -29 -19 -6 -10 -14 -16 -26 -39 -69 -112 -106 -102 -82 -52 -26 -15 -1 -1 0 -1 -4 -2 -3 -16 -5 -7 -13 -61 -48 -65
0 0 0 0 0 0 0 0 -6 -6 -8 -11 -8 -9 -8 -7 -10 -6 -6 -12 -21 -28 -44 -57 -79 -96 -117 -92 -60 -40 -6 -2 -1 -1 -3 -5 -1 -12 -3 -4 -21 -72 -61 -100
0 0 0 0 0 0 0 0 -7 -7 -8 -7 -12 -10 -63 -6 -9 -10 -5 -6 -9 -20 -44 -65 -83 -85 -124 -135 -103 -77 -28 -4 -1 -1 -1 -1 -3 -2 -10 -3 -45 -70 -68 -67
0 0 0 0 0 0 0 0 0 -5 -4 -9 -9 -14 -10 -15 -8 -12 -13 -5 -7 -10 -30 -63 -93 -142 -120 -137 -121 -106 -69 -36 -7 -1 0 -1 0 -6 -16 -25 -25 -102 -86 -76
0 0 0 0 0 0 0 0 0 -5 -12 -7 -9 -6 -38 -27 -14 -5 -5 -2 -8 -5 -27 -61 -72 -128 -158 -174 -141 -135 -102 -77 -55 -33 -2 -6 -9 -13 -43 -37 -43 -57 -95 -85
0 0 0 0 0 0 0 0 0 0 -8 -10 -12 -10 -11 -3 -23 -5 -7 -3 -5 -7 -8 -24 -55 -121 -139 -173 -158 -133 -127 -99 -74 -54 -36 -42 -33 -23 -19 -12 -16 -50 -76 -118
0 0 0 0 0 0 0 0 0 0 -2 -9 -9 -13 -16 -5 -15 0 0 0 -5 -6 -6 -16 -35 -75 -115 -141 -174 -138 -120 -115 -87 -74 -65 -73 -64 -50 -31 -27 -29 -33 -60 -104
0 0 0 0 0 0 0 0 0 0 0 -8 -14 -12 -39 -2 -14 -7 -3 -3 -6 -6 -5 -14 -22 -38 -71 -132 -148 -149 -125 -127 -119 -109 -75 -84 -76 -80 -73 -59 -40 -31 -71 -105
0 0 0 0 0 0 0 0 0 0 0 -1 -5 0 0 -23 -7 -3 -11 0 0 -1 -3 -9 -7 -31 -53 -100 -131 -124 -120 -114 -122 -119 -107 -88 -93 -103 -96 -77 -55 -34 -77 -148
0 0 0 0 0 0 0 0 0 0 0 0 0 -8 -13 -14 -8 -7 0 0 -3 0 -26 -26 -17 -25 -38 -75 -127 -134 -110 -90 -98 -108 -109 -119 -108 -102 -92 -76 -61 -52 -110 -184
0 0 0 0 -1 -3 0 0 0 0 0 0 0 -11 -12 -9 -14 -7 0 0 0 0 -7 -36 -55 -27 -54 -80 -109 -142 -92 -87 -66 -86 -98 -112 -102 -89 -68 -94 -73 -47 -125 -173
0 0 0 0 0 0 0 -6 0 0 0 0 0 0 0 -12 -14 -11 0 0 0 0 0 -28 -59 -63 -58 -91 -108 -144 -128 -102 -90 -69 -81 -89 -75 -90 -85 -91 -89 -73 -124 -236
0 0 0 0 -3 -7 -6 0 0 0 0 0 0 0 0 0 0 -4 -1 0 0 0 0 0 -50 -80 -89 -112 -130 -133 -134 -115 -120 -107 -105 -97 -76 -87 -92 -87 -95 -103 -156 -236
0 -2 -5 -6 -8 -7 0 -5 0 -6 -10 -9 -8 0 0 0 0 0 0 0 0 0 0 0 -19 -68 -87 -116 -125 -149 -152 -151 -144 -157 -124 -115 -69 -56 -81 -110 -126 -147 -200 -196
-8 -6 -8 -4 -6 -6 -16 -4 -9 -10 -8 -7 -5 -8 0 0 0 0 0 0 0 0 -67 -31 -11 -42 -82 -95 -112 -154 -186 -194 -172 -185 -150 -124 -104 -67 -100 -156 -178 -219 -237 -237
-6 -11 -9 -6 -8 -8 -4 -43 -60 -46 -2 -21 -15 -15 -1 0 0 0 0 0 0 -7 -79 -38 -14 -43 -91 -125 -142 -221 -201 -211 -206 -193 -176 -125 -96 -100 -124 -129 -143 -162 -159 -203
0 -2 -5 -5 -5 -6 -35 -14 -52 -12 -34 -80 -60 -56 -39 -21 0 0 -4 0 -16 -94 -76 -42 -43 -67 -131 -181 -177 -222 -220 -241 -222 -197 -161 -103 -89 -86 -101 -165 -158 -192 -189 -205
0 0 0 -3 -7 -5 -47 -50 -9 -85 -101 -90 -62 -56 -77 -53 -18 -3 -62 -71 -67 -65 -69 -88 -105 -141 -206 -205 -241 -223 -214 -202 -179 -139 -116 -106 -96 -93 -100 -125 -131 -189 -161 -193
0 0 -4 -7 -4 -56 -83 -92 -130 -143 -97 -70 -47 -63 -38 -17 -25 -40 -83 -93 -81 -91 -113 -123 -175 -235 -235 -337 -259 -198 -108 -114 -104 -88 -83 -81 -127 -114 -128 -120 -189 -221 -173 -120
-5 -5 -3 -14 -34 -120 -138 -166 -124 -126 -112 -34 -27 -42 -22 -24 -37 -25 -42 -58 -64 -69 -97 -120 -175 -211 -122 -183 -98 -58 -65 -73 -78 -55 -125 -138 -199 -171 -183 -191 -181 -176 -128 -47
-261 -137 -12 -21 -4 -71 -98 -211 -216 -154 -89 -8 -35 -19 -5 -13 -9 -19 -46 -54 -47 -38 -78 -97 -153 -192 -154 -179 -171 -125 -100 -99 -123 -168 -225 -223 -228 -180 -225 -446 -254 -36 -286 -133
-2 0 -97 -333 -60 -84 -74 0 0 -22 -30 -78 -99 -104 -139 -157 -72 -79 -58 -18 -20 -61 -94 -124 -149 -127 -96 -88 -106 -108 -107 -120 -155 -141 -134 -141 -171 -149 -143 -177 -283 0 0 0
Wind_Speed
12 16 31 30 30 36 30 14 28 7 8 17 19 31 3 4 22 20 21 25 27 31 27 26 25 23 21 19 16 16 18 12 13 12 12 16 16 16 16 19 13 10 6 8
15 27 26 29 30 27 31 30 10 18 6 15 19 25 6 2 14 26 25 24 28 25 27 25 23 23 21 20 16 14 15 13 13 11 17 18 11 13 10 8 6 6 5 5
19 18 18 19 20 23 27 30 12 11 7 5 33 29 16 12 5 12 30 25 24 29 26 24 25 24 22 22 20 15 15 13 14 19 10 6 14 7 8 4 5 5 5 6
18 21 21 34 23 21 21 25 41 16 11 17 14 37 19 9 14 8 13 17 20 21 24 22 22 24 24 21 19 17 14 15 15 16 19 11 8 8 5 5 8 9 8 8
17 18 24 27 30 22 20 16 17 32 25 21 15 40 33 12 10 9 8 11 15 16 17 18 18 18 19 18 17 16 15 14 15 14 17 9 9 4 5 7 9 8 9 9
16 13 21 30 37 34 37 38 31 30 38 47 39 15 42 9 11 8 9 10 12 12 12 14 15 16 17 18 19 19 15 14 15 14 12 12 4 6 3 4 7 8 8 9
15 20 17 27 33 34 38 33 38 43 38 53 28 21 37 22 14 13 9 8 10 12 16 18 17 18 18 18 18 17 15 15 14 14 12 11 9 4 4 4 5 6 7 7
20 23 22 18 29 32 34 31 36 40 35 33 23 34 24 37 18 9 7 13 7 12 20 23 22 22 21 21 22 22 17 15 16 14 12 10 9 11 10 7 4 5 5 6
22 27 17 22 24 36 36 46 36 39 33 41 36 31 46 27 26 29 29 26 11 9 18 24 22 23 23 21 21 21 19 17 16 15 12 13 12 14 10 10 10 11 7 6
25 30 20 19 24 32 47 36 44 47 53 51 39 42 34 28 28 28 23 28 17 10 14 23 23 22 21 21 20 22 20 18 18 16 16 17 17 15 15 12 9 12 8 6
26 29 26 23 26 28 33 48 45 48 51 51 49 41 24 18 20 22 19 14 11 7 9 17 21 20 20 20 21 23 21 20 22 23 22 21 18 15 14 16 14 10 8 5
26 27 30 28 27 25 37 41 48 48 49 51 55 49 23 16 16 19 19 19 10 7 8 9 13 17 20 22 22 23 23 23 23 23 24 20 15 15 15 16 13 10 9 7
25 32 31 32 29 28 30 38 40 52 45 52 53 49 48 18 19 13 25 32 31 26 20 21 8 12 19 20 21 21 21 23 22 22 20 16 16 16 16 14 13 11 11 10
28 32 36 32 31 25 29 33 44 47 56 52 55 48 41 43 28 25 25 33 27 19 17 22 19 11 16 19 22 21 21 20 19 19 18 17 16 16 14 14 15 13 13 12
32 37 36 37 41 29 28 30 37 49 49 57 53 49 47 45 39 28 27 32 31 30 22 18 18 15 13 15 17 21 20 18 18 17 17 17 15 14 14 13 12 12 12 13
32 39 36 36 35 38 38 32 30 36 48 55 56 58 44 48 48 36 36 41 38 31 29 20 21 23 15 16 17 16 19 17 16 15 17 14 12 12 12 12 12 10 11 12
37 37 36 38 34 32 41 42 37 37 34 37 52 58 51 50 48 46 39 41 42 42 40 34 25 23 16 15 15 16 16 16 15 15 14 12 11 11 10 9 8 9 8 8
38 38 39 39 32 40 37 36 37 44 49 45 39 44 46 53 54 51 42 39 48 51 47 44 26 28 15 16 15 14 13 14 14 15 13 12 10 8 7 7 7 6 7 8
37 38 41 40 39 33 28 31 26 26 33 35 41 39 43 42 43 49 51 55 49 46 45 38 23 25 18 16 16 14 13 13 13 11 12 10 10 8 6 7 6 7 7 8
38 36 41 37 44 36 32 21 22 23 38 33 37 39 42 38 42 45 36 50 37 32 36 40 27 23 19 17 16 16 16 15 14 12 10 9 8 7 7 6 7 7 8 8
43 43 44 42 36 41 16 21 20 30 32 27 31 37 39 39 42 38 35 36 38 33 37 30 24 19 17 18 16 15 15 14 11 9 8 7 6 7 7 8 9 9 10 10
40 39 41 41 42 34 16 17 27 23 25 30 32 33 36 40 43 35 25 25 29 29 30 26 21 18 16 15 14 13 12 9 8 7 6 6 8 7 10 10 11 12 12 13
42 39 35 32 38 19 16 16 17 21 24 29 29 29 28 26 20 20 23 24 23 21 22 19 17 15 16 13 11 11 9 8 7 6 7 8 8 10 11 10 12 12 14 14
31 29 35 18 16 15 15 15 14 17 21 25 21 18 14 9 10 11 11 11 13 14 14 14 12 11 11 9 8 7 7 6 6 7 9 10 8 9 11 12 13 14 13 12
28 30 35 16 12 6 9 11 12 14 14 13 13 10 9 6 5 6 8 9 11 13 11 10 10 8 7 5 5 5 6 5 6 8 8 8 9 10 12 14 16 14 16 16
29 23 22 10 16 6 6 6 7 9 9 11 8 6 7 5 3 4 6 7 7 7 7 6 4 3 3 3 2 4 5 5 6 6 7 8 8 8 9 10 13 17 16 16
Wind_Direction
209 198 188 185 185 195 189 174 198 255 152 158 159 217 309 102 160 154 155 164 169 179 172 173 171 168 166 163 160 162 165 153 153 150 149 163 164 166 174 197 175 165 123 151
240 197 188 186 187 187 197 197 190 261 167 161 167 177 166 160 152 175 171 168 177 173 176 173 171 172 170 169 164 162 164 161 160 148 166 181 144 157 147 136 69 95 92 108
239 239 208 203 201 197 196 198 191 181 190 197 231 192 199 259 178 164 193 178 174 182 176 172 175 177 174 175 173 167 166 163 163 171 145 128 164 309 1 60 53 68 68 60
244 253 236 243 225 207 206 194 225 256 239 264 222 219 183 211 181 193 175 173 175 175 179 176 176 180 181 179 176 173 168 168 166 164 172 152 130 138 108 73 25 26 35 63
240 242 242 236 198 212 217 221 247 256 259 264 239 215 245 195 209 220 201 184 178 178 179 181 180 180 182 181 180 178 175 173 170 166 170 156 157 110 36 24 24 47 57 58
236 235 240 251 246 246 245 248 254 257 256 240 244 231 221 215 203 238 207 192 189 188 193 188 184 182 183 183 181 179 179 180 175 171 171 172 156 155 40 61 52 72 70 78
245 235 245 253 247 244 241 244 247 247 249 232 251 240 224 264 261 265 247 212 206 195 182 181 185 184 181 182 185 184 183 184 183 180 177 175 174 150 142 57 106 83 83 78
252 254 222 236 244 241 235 230 241 246 253 255 253 246 211 234 271 265 256 280 211 188 183 184 183 182 180 178 178 179 182 187 183 184 183 178 173 165 157 150 112 109 97 88
250 260 254 236 238 244 238 239 243 252 258 255 256 261 237 265 260 261 270 274 277 203 183 186 184 182 180 178 178 179 179 182 186 184 188 180 174 173 169 162 158 154 129 79
261 268 252 232 247 250 244 243 240 244 246 248 254 252 257 256 261 267 264 271 279 265 187 188 186 184 182 180 179 178 181 182 184 189 185 181 178 177 176 171 163 166 146 147
250 261 266 245 228 231 242 243 242 246 247 250 252 256 253 258 264 265 253 252 264 230 199 185 188 189 186 183 181 181 182 184 183 183 183 182 184 183 184 184 181 180 174 158
239 254 256 258 251 245 250 245 242 244 244 250 253 255 268 257 262 269 261 262 191 211 214 203 199 194 189 188 185 183 184 185 185 185 184 188 192 192 193 195 195 197 197 194
233 245 253 257 258 247 241 246 242 245 249 248 250 252 241 267 269 241 259 259 256 262 276 273 228 203 195 191 190 187 185 184 183 183 186 194 197 200 202 205 204 203 205 206
249 246 243 248 252 259 246 247 248 247 246 249 250 253 252 252 264 265 264 259 261 274 282 283 274 235 204 198 193 190 188 189 189 188 191 193 197 200 204 204 206 209 213 215
250 246 250 250 256 258 254 250 252 249 250 248 252 253 252 255 257 259 258 256 263 267 279 286 279 268 227 210 199 193 193 196 192 194 194 196 197 200 202 207 214 218 226 230
244 246 250 251 254 255 258 257 249 255 255 254 252 255 256 255 251 260 256 252 252 262 274 284 283 274 241 217 206 199 196 204 203 201 196 198 201 205 207 211 220 228 235 238
237 242 244 249 253 258 256 255 260 260 255 258 256 255 257 258 258 258 257 256 257 262 269 275 278 269 245 225 217 209 201 203 206 204 199 207 209 210 207 214 226 231 238 258
240 239 244 248 251 252 261 263 262 262 259 263 263 261 260 258 259 260 264 261 258 255 261 265 271 264 247 227 216 215 205 208 211 203 203 205 205 211 215 223 225 236 256 264
241 239 241 244 248 261 256 265 270 271 268 265 269 272 264 261 263 259 257 258 261 261 260 262 263 260 250 230 219 215 210 211 214 209 223 209 204 207 215 220 229 254 257 273
239 242 239 242 247 250 258 269 281 281 269 276 276 274 268 265 258 260 260 254 257 264 258 256 260 256 244 233 219 219 215 209 212 213 215 220 215 216 230 245 270 290 292 291
232 235 237 241 248 252 268 271 281 268 274 288 285 277 274 271 262 265 267 257 254 258 256 256 255 246 238 234 225 222 217 212 212 207 207 220 240 266 275 283 289 296 298 305
229 228 236 239 245 251 266 266 266 283 295 289 289 283 275 264 261 255 265 263 260 260 252 249 244 241 230 224 221 223 219 207 200 202 216 244 276 291 297 296 303 307 311 310
230 230 232 245 247 257 274 277 289 292 290 287 293 289 279 271 272 264 263 261 260 255 248 238 229 229 227 218 218 213 209 197 206 233 258 272 301 298 307 304 314 314 310 313
228 230 231 242 251 248 273 283 297 303 294 290 306 304 292 285 275 271 263 255 256 245 238 232 217 207 216 211 211 207 213 229 238 265 286 301 309 312 317 315 316 319 315 316
235 253 228 209 199 205 258 295 312 314 312 313 321 318 325 341 300 269 256 254 252 241 232 222 210 200 215 206 202 219 239 250 267 290 300 309 318 319 322 327 328 327 330 328
229 233 243 193 196 214 267 309 336 330 322 336 359 352 352 344 324 304 262 259 249 239 229 219 205 186 211 248 246 261 276 281 293 308 314 327 323 326 328 328 330 340 340 339